KJ5IIV Weather Reports


time (UTC)temp
C
wind
direction
speed
KPH
gust
KPH
rain 1hr
cm
rain 24hr
cm
rain mn
cm
humidity
%
barometer
mb
20260502150443 19 68 3.2 6.4 0.00 0.00 0.00 65 1021.0
20260502130329 15 91 4.8 8.0 0.00 0.00 0.00 76 1019.9
20260502123814 13 52 3.2 4.8 0.00 0.00 0.00 82 1019.8
20260502123311 13 38 4.8 4.8 0.00 0.00 0.00 84 1019.9
20260502122808 13 54 3.2 6.4 0.00 0.00 0.00 86 1019.8
20260502122306 12 39 4.8 6.4 0.00 0.00 0.00 86 1019.9
20260502121803 12 63 3.2 6.4 0.00 0.00 0.00 91 1019.8
20260502121300 11 99 4.8 4.8 0.00 0.00 0.00 94 1019.7
20260502120757 10 93 3.2 4.8 0.00 0.00 0.00 94 1019.8
20260502120253 10 136 3.2 4.8 0.00 0.00 0.00 94 1019.6
20260502115751 10 106 3.2 4.8 0.00 0.00 0.00 94 1019.6
20260502115248 10 104 3.2 4.8 0.00 0.00 0.00 94 1019.4
20260502114743 10 95 3.2 3.2 0.00 0.00 0.00 94 1019.1
20260502114241 10 112 3.2 4.8 0.00 0.00 0.00 94 1018.9
20260502113738 10 103 3.2 3.2 0.00 0.00 0.00 93 1018.7
20260502113236 10 101 3.2 3.2 0.05 0.00 0.00 93 1018.7
20260502112734 10 110 3.2 3.2 0.05 0.00 0.00 93 1018.7
20260502112231 10 97 3.2 3.2 0.00 0.00 0.00 93 1018.5
20260502111728 10 109 3.2 3.2 0.00 0.00 0.00 93 1018.4
20260502111225 10 127 3.2 4.8 0.00 0.00 0.00 93 1018.2
20260502110723 10 104 3.2 4.8 0.00 0.00 0.00 93 1018.3
20260502110220 10 129 3.2 4.8 0.00 0.00 0.00 93 1018.5
20260502105718 10 137 3.2 4.8 0.00 0.00 0.00 94 1018.6
20260502105214 10 119 1.6 4.8 0.00 0.00 0.00 94 1018.4
20260502104712 10 111 3.2 4.8 0.00 0.00 0.00 94 1018.4
20260502104209 10 122 3.2 4.8 0.00 0.00 0.00 94 1018.2
20260502103707 10 135 3.2 4.8 0.00 0.00 0.00 94 1018.5
20260502103205 10 121 3.2 4.8 0.00 0.00 0.00 94 1018.5
20260502102701 10 121 3.2 4.8 0.00 0.00 0.00 94 1018.5
20260502102158 10 131 3.2 4.8 0.00 0.00 0.00 94 1018.4
20260502101656 10 116 1.6 4.8 0.00 0.00 0.00 94 1018.4
20260502101154 10 117 3.2 4.8 0.00 0.00 0.00 94 1018.4
20260502100652 10 124 3.2 4.8 0.00 0.00 0.00 94 1018.4
20260502100150 10 103 3.2 4.8 0.00 0.00 0.00 94 1018.3
20260502091124 11 111 3.2 4.8 0.00 0.00 0.00 93 1018.1
20260502090621 11 124 1.6 4.8 0.00 0.00 0.00 92 1017.9
20260502090118 11 106 1.6 3.2 0.00 0.00 0.00 92 1018.0
20260502071515 11 100 3.2 3.2 0.00 0.00 0.00 92 1018.3
20260502071014 11 104 3.2 3.2 0.00 0.00 0.00 92 1018.2
20260502070511 11 113 3.2 3.2 0.00 0.00 0.00 92 1018.0
20260502070009 11 105 1.6 3.2 0.00 0.00 0.00 92 1018.1
20260502065508 11 107 3.2 4.8 0.00 0.00 0.00 92 1018.2
20260502065005 11 109 3.2 3.2 0.00 0.00 0.00 92 1018.1
20260502064503 11 103 3.2 3.2 0.00 0.00 0.00 92 1018.1
20260502064000 11 118 3.2 3.2 0.00 0.00 0.00 92 1018.3
20260502063458 11 107 3.2 3.2 0.00 0.00 0.00 92 1018.3
20260502062955 11 103 1.6 3.2 0.00 0.00 0.00 93 1018.3
20260502062452 11 133 1.6 4.8 0.00 0.00 0.00 93 1018.1
20260502061951 11 129 3.2 3.2 0.00 0.00 0.00 93 1018.2
20260502061449 11 129 3.2 3.2 0.00 0.00 0.00 93 1018.0
20260502060944 11 131 3.2 4.8 0.00 0.00 0.00 92 1018.2
20260502060440 11 103 1.6 3.2 0.00 0.00 0.00 92 1018.1
20260502055936 11 99 3.2 4.8 0.00 0.00 0.00 92 1018.1
20260502055434 11 128 1.6 3.2 0.00 0.00 0.00 92 1018.1
20260502054929 11 111 3.2 3.2 0.00 0.00 0.00 92 1017.9
20260502054426 11 100 3.2 4.8 0.00 0.00 0.00 93 1018.1
20260502053923 11 64 3.2 3.2 0.00 0.00 0.00 93 1018.1
20260502053420 11 78 3.2 4.8 0.00 0.00 0.00 93 1018.2
20260502052918 11 99 3.2 3.2 0.00 0.00 0.00 93 1018.2
20260502052416 11 124 3.2 3.2 0.00 0.00 0.00 94 1018.2
20260502051914 11 70 1.6 3.2 0.00 0.00 0.00 94 1018.2
20260502051412 11 60 0.0 3.2 0.00 0.00 0.00 95 1018.2
20260502050908 11 116 3.2 3.2 0.00 0.00 0.00 94 1018.3
20260502050405 11 98 3.2 4.8 0.00 0.00 0.00 94 1018.4
20260502045902 11 128 3.2 3.2 0.00 0.00 0.00 94 1018.0
20260502045359 11 98 3.2 3.2 0.00 0.00 0.00 94 1018.1
20260502044856 11 122 3.2 3.2 0.00 0.15 0.15 94 1017.9
20260502044351 11 108 3.2 3.2 0.00 0.15 0.15 94 1018.0
20260502043849 11 89 0.0 3.2 0.00 0.15 0.15 94 1017.9
20260502043346 11 119 3.2 3.2 0.00 0.15 0.15 94 1018.1
20260502042846 11 99 1.6 4.8 0.00 0.15 0.15 94 1018.1
20260502042343 11 121 3.2 4.8 0.00 0.15 0.15 94 1017.9
20260502041841 11 113 3.2 4.8 0.00 0.15 0.15 94 1018.1
20260502041338 11 135 3.2 3.2 0.00 0.15 0.15 94 1018.1
20260502040835 11 111 3.2 4.8 0.00 0.15 0.15 94 1018.0
20260502040332 11 121 3.2 4.8 0.00 0.15 0.15 94 1018.0
20260502035828 12 145 3.2 3.2 0.00 0.15 0.15 94 1017.8
20260502035325 12 120 1.6 3.2 0.00 0.15 0.15 93 1017.9
20260502034822 12 98 1.6 3.2 0.00 0.15 0.15 93 1018.0
20260502034320 12 103 3.2 3.2 0.00 0.15 0.15 93 1017.9
20260502033819 12 93 0.0 3.2 0.00 0.15 0.15 92 1017.9
20260502033316 12 78 1.6 3.2 0.00 0.15 0.15 92 1017.7
20260502032812 12 87 3.2 3.2 0.00 0.15 0.15 92 1017.5
20260502032308 12 122 0.0 3.2 0.00 0.15 0.15 92 1017.6
20260502031806 12 132 0.0 3.2 0.00 0.15 0.15 91 1017.6
20260502031304 12 98 3.2 3.2 0.00 0.15 0.15 91 1017.5
20260502030803 12 34 0.0 3.2 0.00 0.15 0.15 91 1017.2
20260502030300 13 162 0.0 3.2 0.00 0.15 0.15 91 1017.4
20260502025757 13 96 3.2 3.2 0.00 0.15 0.15 91 1017.1
20260502025255 13 74 1.6 4.8 0.00 0.15 0.15 90 1017.2
20260502024753 13 334 0.0 4.8 0.00 0.15 0.15 91 1017.4
20260502024250 13 68 1.6 3.2 0.00 0.15 0.15 91 1017.2
20260502023748 13 102 1.6 3.2 0.00 0.15 0.15 90 1017.1
20260502023245 13 129 0.0 3.2 0.00 0.15 0.15 90 1017.2
20260502022743 13 130 1.6 3.2 0.00 0.15 0.15 90 1017.4
20260502022239 13 32 0.0 3.2 0.00 0.15 0.15 90 1017.6
20260502021736 13 77 0.0 3.2 0.00 0.15 0.15 90 1017.4
20260502021234 13 92 3.2 4.8 0.00 0.15 0.15 90 1017.1
20260502020731 13 94 3.2 4.8 0.00 0.15 0.15 90 1017.2
20260502020228 13 51 3.2 4.8 0.00 0.15 0.15 89 1017.1
20260502015726 13 72 3.2 3.2 0.00 0.15 0.15 88 1017.6
20260502015222 13 94 1.6 3.2 0.00 0.15 0.15 87 1017.2
20260502014720 13 120 1.6 1.6 0.00 0.15 0.15 85 1017.1
20260502014216 13 181 0.0 3.2 0.00 0.15 0.15 85 1016.8
20260502013713 13 180 0.0 3.2 0.00 0.15 0.15 86 1016.7
20260502013208 13 71 3.2 4.8 0.00 0.15 0.15 85 1016.6
20260502012705 13 96 3.2 4.8 0.00 0.15 0.15 87 1016.5
20260502012203 13 154 1.6 3.2 0.00 0.15 0.15 85 1016.4
20260502011659 13 134 4.8 4.8 0.00 0.15 0.15 85 1016.6
20260502011155 13 127 1.6 3.2 0.00 0.15 0.15 83 1016.3
20260502010653 13 74 3.2 6.4 0.00 0.15 0.15 80 1015.8
20260502010149 13 61 4.8 6.4 0.00 0.15 0.15 81 1015.7
20260502005647 14 41 4.8 6.4 0.00 0.15 0.15 80 1015.7
20260502005144 14 94 3.2 3.2 0.00 0.15 0.15 81 1016.3
20260502004640 14 102 1.6 6.4 0.00 0.15 0.15 81 1016.1
20260502004137 14 124 4.8 8.0 0.00 0.15 0.15 83 1016.0
20260502003635 14 70 1.6 3.2 0.00 0.15 0.15 82 1016.1
20260502003132 14 100 3.2 6.4 0.00 0.15 0.15 81 1015.8
20260502002628 14 82 1.6 6.4 0.00 0.15 0.15 81 1015.6
20260502002126 15 65 3.2 9.7 0.00 0.15 0.15 80 1015.6
20260502001623 15 105 8.0 9.7 0.00 0.15 0.15 80 1015.5
20260502001120 15 105 3.2 9.7 0.00 0.15 0.15 81 1015.4
20260502000618 15 46 9.7 12.9 0.00 0.15 0.15 81 1015.3
20260502000115 15 83 3.2 6.4 0.00 0.15 0.15 83 1015.4
20260501235611 15 98 4.8 6.4 0.00 0.15 0.15 82 1015.5
20260501235107 15 81 3.2 4.8 0.00 0.15 0.15 81 1015.5
20260501234603 15 98 3.2 6.4 0.00 0.15 0.15 80 1015.7
20260501234101 15 85 6.4 6.4 0.00 0.15 0.15 80 1015.8
20260501233559 15 81 4.8 4.8 0.00 0.15 0.15 78 1015.9
20260501233055 15 51 4.8 6.4 0.00 0.15 0.15 79 1015.7
20260501232551 15 71 1.6 3.2 0.00 0.15 0.15 80 1015.7
20260501232049 15 69 4.8 8.0 0.00 0.15 0.15 81 1015.3
20260501231547 15 72 4.8 6.4 0.00 0.15 0.15 82 1015.2
20260501231045 15 77 4.8 6.4 0.00 0.15 0.15 81 1015.3
20260501230543 15 52 3.2 6.4 0.00 0.15 0.15 78 1015.7
20260501230041 15 49 3.2 4.8 0.00 0.15 0.15 77 1015.9
20260501225538 15 40 6.4 6.4 0.00 0.15 0.15 76 1015.4
20260501225034 15 54 3.2 8.0 0.00 0.15 0.15 76 1015.4
20260501224532 15 58 1.6 8.0 0.00 0.15 0.15 77 1015.4
20260501224029 15 113 6.4 9.7 0.00 0.15 0.15 76 1015.1
20260501223525 15 52 4.8 9.7 0.00 0.15 0.15 75 1014.7
20260501223021 15 92 8.0 9.7 0.00 0.15 0.15 74 1014.9
20260501222518 15 64 3.2 4.8 0.00 0.15 0.15 76 1014.8
20260501222015 15 70 6.4 8.0 0.00 0.15 0.15 73 1014.8
20260501221511 15 66 4.8 6.4 0.00 0.15 0.15 73 1014.8
20260501221009 16 18 3.2 4.8 0.00 0.15 0.15 74 1014.6
20260501220507 16 79 3.2 6.4 0.00 0.15 0.15 74 1014.2
20260501220003 16 50 6.4 14.5 0.00 0.15 0.15 72 1013.9
20260501215459 16 99 6.4 9.7 0.00 0.15 0.15 73 1013.7
20260501214955 16 97 11.3 14.5 0.00 0.15 0.15 72 1013.7
20260501214450 16 45 4.8 6.4 0.00 0.15 0.15 72 1013.9
20260501213946 16 52 6.4 11.3 0.00 0.15 0.15 73 1013.9
20260501213443 15 92 6.4 9.7 0.00 0.15 0.15 74 1014.3
20260501212938 15 87 8.0 11.3 0.00 0.15 0.15 70 1014.4
20260501212436 16 61 6.4 8.0 0.00 0.15 0.15 71 1014.3
20260501211932 16 25 4.8 8.0 0.00 0.15 0.15 71 1014.5
20260501211430 16 40 4.8 9.7 0.00 0.15 0.15 71 1014.5
20260501210927 16 82 6.4 9.7 0.00 0.15 0.15 69 1014.6
20260501210424 16 21 9.7 9.7 0.00 0.15 0.15 69 1014.9
20260501205920 16 82 3.2 9.7 0.00 0.15 0.15 69 1015.1
20260501205417 16 102 6.4 11.3 0.00 0.15 0.15 70 1015.2
20260501204915 16 88 9.7 12.9 0.00 0.15 0.15 70 1015.2
20260501204410 16 102 9.7 11.3 0.00 0.15 0.15 68 1015.3
20260501203906 15 77 3.2 8.0 0.00 0.15 0.15 69 1015.6
20260501203404 16 82 3.2 17.7 0.00 0.15 0.15 67 1015.6
20260501202901 16 62 6.4 19.3 0.00 0.15 0.15 68 1015.4
20260501202358 16 79 12.9 14.5 0.00 0.15 0.15 66 1015.1
20260501201855 16 40 9.7 14.5 0.00 0.15 0.15 63 1015.0
20260501201352 16 98 9.7 16.1 0.00 0.15 0.15 65 1014.5
20260501200848 16 95 20.9 20.9 0.00 0.15 0.15 64 1014.6
20260501200345 16 80 14.5 19.3 0.00 0.15 0.15 65 1014.2
20260501195843 16 235 1.6 25.7 0.00 0.15 0.15 66 1014.1
20260501195338 16 74 6.4 20.9 0.00 0.15 0.15 66 1014.1
20260501194835 17 94 11.3 24.1 0.00 0.15 0.15 63 1013.9
20260501194331 17 53 11.3 25.7 0.00 0.15 0.15 67 1013.9
20260501193827 17 310 3.2 24.1 0.00 0.15 0.15 70 1013.9
20260501193326 16 99 11.3 20.9 0.00 0.15 0.15 69 1014.2
20260501192823 16 93 22.5 25.7 0.00 0.15 0.15 69 1014.4
20260501192320 16 55 6.4 20.9 0.00 0.15 0.15 71 1014.3
20260501191817 16 71 6.4 20.9 0.00 0.15 0.15 73 1014.5
20260501191314 15 53 6.4 24.1 0.00 0.15 0.15 74 1014.5
20260501190811 15 22 9.7 29.0 0.00 0.15 0.15 75 1014.9
20260501190307 15 70 16.1 22.5 0.00 0.15 0.15 79 1014.8
20260501185802 15 46 22.5 22.5 0.00 0.15 0.15 78 1014.9
20260501185258 15 70 16.1 19.3 0.00 0.15 0.15 79 1015.3
20260501184754 15 80 17.7 17.7 0.00 0.15 0.15 81 1015.0
20260501184250 14 66 16.1 19.3 0.00 0.15 0.15 83 1015.4
20260501183746 14 30 12.9 17.7 0.00 0.15 0.15 82 1015.8
20260501183243 14 71 4.8 12.9 0.00 0.15 0.15 85 1015.7
20260501182739 13 66 9.7 14.5 0.00 0.15 0.15 84 1015.7
20260501182237 13 72 8.0 19.3 0.00 0.15 0.15 82 1016.1
20260501181733 13 72 6.4 9.7 0.00 0.15 0.15 83 1016.3
20260501181231 13 47 4.8 20.9 0.00 0.15 0.15 82 1016.3
20260501180729 13 92 4.8 24.1 0.00 0.15 0.15 83 1016.5
20260501180224 13 14 4.8 9.7 0.00 0.15 0.15 84 1016.5
20260501175721 13 60 8.0 16.1 0.00 0.15 0.15 83 1016.6
20260501175218 13 105 9.7 12.9 0.00 0.15 0.15 86 1016.3
20260501174715 13 29 8.0 12.9 0.00 0.15 0.15 85 1016.7
20260501174212 13 39 9.7 11.3 0.00 0.15 0.15 87 1016.6
20260501173710 12 77 4.8 12.9 0.00 0.15 0.15 87 1016.3
20260501173207 12 75 6.4 16.1 0.00 0.15 0.15 87 1016.5
20260501172703 12 95 9.7 14.5 0.00 0.15 0.15 88 1016.7
20260501172157 12 52 14.5 14.5 0.00 0.15 0.15 88 1016.7
20260501171654 12 64 8.0 14.5 0.00 0.15 0.15 89 1017.0
20260501171151 12 84 12.9 14.5 0.00 0.15 0.15 89 1017.1
20260501170648 12 100 9.7 12.9 0.00 0.15 0.15 89 1017.1
20260501170145 12 102 4.8 11.3 0.00 0.15 0.15 91 1017.4
20260501165642 12 84 12.9 17.7 0.00 0.15 0.15 91 1017.4
20260501165139 12 69 8.0 14.5 0.00 0.15 0.15 91 1017.0
20260501164638 12 80 11.3 11.3 0.00 0.15 0.15 92 1017.1
20260501164134 12 87 9.7 11.3 0.00 0.15 0.15 93 1017.1
20260501163630 12 73 6.4 11.3 0.00 0.15 0.15 93 1017.2
20260501163127 12 39 9.7 11.3 0.05 0.15 0.15 93 1017.4
20260501162623 12 92 12.9 12.9 0.05 0.15 0.15 93 1017.6
20260501162120 12 69 6.4 11.3 0.05 0.15 0.15 92 1017.7
20260501161618 12 41 8.0 8.0 0.05 0.15 0.15 92 1018.0
20260501161115 12 68 4.8 8.0 0.00 0.13 0.13 92 1017.9
20260501160611 12 66 8.0 8.0 0.00 0.13 0.13 92 1017.9
20260501160108 12 72 9.7 14.5 0.00 0.13 0.13 91 1018.1
20260501155605 12 54 6.4 9.7 0.05 0.13 0.13 92 1018.1
20260501155102 12 42 6.4 11.3 0.05 0.13 0.13 92 1017.9
20260501154559 12 42 8.0 9.7 0.00 0.13 0.13 92 1017.8
20260501154056 12 85 8.0 11.3 0.05 0.13 0.13 92 1017.5
20260501153553 12 70 11.3 11.3 0.05 0.13 0.13 92 1017.4
20260501153050 12 94 8.0 14.5 0.05 0.10 0.10 92 1017.5
20260501152547 12 66 9.7 12.9 0.05 0.10 0.10 91 1017.0
20260501152044 12 73 6.4 9.7 0.05 0.10 0.10 91 1017.4
20260501151541 12 31 8.0 11.3 0.00 0.10 0.10 91 1017.6
20260501151038 12 89 6.4 9.7 0.00 0.10 0.10 91 1017.6
20260501150533 12 77 4.8 6.4 0.00 0.10 0.10 92 1017.5